TimeCST,TemperatureF,Dew PointF,Humidity,Sea Level PressureIn,VisibilityMPH,Wind Direction,Wind SpeedMPH,Gust SpeedMPH,PrecipitationIn,Events,Conditions,WindDirDegrees,DateUTC
12:54 AM,30.9,28.9,92,29.83,3.0,SSW,6.9,-,N/A,,Overcast,200,2012-02-14 06:54:00
1:54 AM,30.9,28.9,92,29.82,4.0,South,8.1,-,N/A,,Overcast,190,2012-02-14 07:54:00
2:54 AM,30.9,28.9,92,29.82,4.0,SSW,8.1,-,N/A,,Overcast,210,2012-02-14 08:54:00
3:54 AM,30.9,28.9,92,29.83,4.0,SSW,8.1,-,N/A,,Overcast,210,2012-02-14 09:54:00
4:49 AM,30.2,30.2,100,29.82,3.0,SW,6.9,-,N/A,,Overcast,220,2012-02-14 10:49:00
4:54 AM,30.9,30.0,96,29.84,3.0,SW,6.9,-,N/A,,Overcast,220,2012-02-14 10:54:00
5:54 AM,30.9,30.0,96,29.86,4.0,WSW,4.6,-,N/A,,Overcast,240,2012-02-14 11:54:00
6:54 AM,32.0,30.0,92,29.87,3.0,WSW,5.8,-,N/A,,Overcast,240,2012-02-14 12:54:00
7:08 AM,32.0,30.2,93,29.86,2.0,WSW,5.8,-,N/A,,Overcast,250,2012-02-14 13:08:00
7:16 AM,32.0,30.2,93,29.86,1.8,WSW,6.9,-,N/A,,Overcast,240,2012-02-14 13:16:00
7:42 AM,32.0,30.2,93,29.87,2.5,West,5.8,-,N/A,,Overcast,260,2012-02-14 13:42:00
7:54 AM,32.0,30.0,92,29.89,2.5,West,4.6,-,N/A,,Overcast,270,2012-02-14 13:54:00
8:05 AM,32.0,30.2,93,29.87,3.0,West,5.8,-,N/A,,Overcast,260,2012-02-14 14:05:00
8:27 AM,32.0,30.2,93,29.88,5.0,West,6.9,-,N/A,,Overcast,270,2012-02-14 14:27:00
8:54 AM,33.1,30.0,89,29.91,7.0,West,5.8,-,N/A,,Overcast,270,2012-02-14 14:54:00
9:54 AM,33.1,30.0,89,29.93,9.0,West,6.9,-,N/A,,Overcast,270,2012-02-14 15:54:00
10:54 AM,33.1,30.0,89,29.95,10.0,WSW,4.6,-,N/A,,Overcast,250,2012-02-14 16:54:00
11:54 AM,34.0,30.0,85,29.94,10.0,SW,5.8,-,N/A,,Overcast,230,2012-02-14 17:54:00
12:54 PM,34.0,28.9,82,29.93,10.0,WSW,9.2,-,N/A,,Overcast,240,2012-02-14 18:54:00
1:12 PM,33.8,28.4,81,29.90,10.0,SW,8.1,-,N/A,,Overcast,230,2012-02-14 19:12:00
1:54 PM,35.1,28.9,78,29.92,10.0,SW,10.4,-,N/A,,Overcast,230,2012-02-14 19:54:00
2:54 PM,35.1,28.9,78,29.94,10.0,SW,10.4,-,N/A,,Overcast,230,2012-02-14 20:54:00
3:54 PM,36.0,30.0,79,29.95,10.0,SW,8.1,-,N/A,,Overcast,220,2012-02-14 21:54:00
4:54 PM,35.1,30.0,82,29.94,10.0,South,9.2,-,N/A,,Mostly Cloudy,190,2012-02-14 22:54:00
5:07 PM,35.6,28.4,75,29.93,10.0,South,9.2,-,N/A,,Scattered Clouds,190,2012-02-14 23:07:00
5:54 PM,33.1,28.0,82,29.96,10.0,South,6.9,-,N/A,,Clear,180,2012-02-14 23:54:00
6:54 PM,33.1,28.0,82,29.98,10.0,South,6.9,-,N/A,,Clear,180,2012-02-15 00:54:00
7:54 PM,32.0,28.0,85,29.98,10.0,South,10.4,-,N/A,,Clear,180,2012-02-15 01:54:00
8:54 PM,32.0,28.0,85,29.99,8.0,South,9.2,-,N/A,,Scattered Clouds,180,2012-02-15 02:54:00
9:54 PM,30.9,28.0,89,30.00,7.0,South,5.8,-,N/A,,Partly Cloudy,170,2012-02-15 03:54:00
10:54 PM,32.0,28.9,88,30.00,8.0,SSE,8.1,-,N/A,,Overcast,160,2012-02-15 04:54:00
11:54 PM,28.9,26.1,89,30.00,5.0,SE,4.6,-,N/A,,Clear,140,2012-02-15 05:54:00